Location: La Comballaz
(46.3780°N, 7.0817°E)
Time: 07:43:51
(UTC+00:00)

Cosmos 1535 Rocket - Pass Details

Date: 09 April 2020
Orbit: 949 x 1003 km, 83.0° (Epoch: 02 June)

Event Time Altitude Azimuth Distance (km) Brightness Sun altitude
Rises 21:38:56 0° 350° (N) 3,648 8.5 -30.0°
Reaches altitude 10° 21:41:26 10° 351° (N) 2,704 7.6 -30.2°
Enters shadow 21:47:19 81° 331° (NNW) 985 4.4 -30.7°
